Weather History for Richlands, VA

Change the Weather History Date:

Monday, October 8, 2012

  Actual Average (KBLF) Record (KBLF)
Temperature  
Mean Temperature 40 °F 58 °F  
Max Temperature 44 °F 68 °F 88 °F (2007)
Min Temperature 35 °F 49 °F 28 °F (2000)
Degree Days  
Heating Degree Days 26 7  
Month to date heating degree days 52  
Since 1 July heating degree days 131  
Cooling Degree Days 0 1  
Month to date cooling degree days 8  
Year to date cooling degree days 840  
Moisture  
Dew Point 40 °F    
Average Humidity 100    
Maximum Humidity 100    
Minimum Humidity 87    
Precipitation  
Precipitation 0.00 in 0.08 in 1.11 in (1976)
Month to date precipitation 0.68  
Year to date precipitation 32.21  
Snow  
Snow 0.00 in - - ()
Month to date snowfall  
Since 1 July snowfall  
Since 1 September snowfall  
Snow Depth -    
Sea Level Pressure  
Sea Level Pressure 30.15 in    
Wind  
Wind Speed 2 mph (NE)    
Max Wind Speed 6 mph    
Max Gust Speed -    
Visibility 8 miles    
Events      
T = Trace of Precipitation, MM = Missing Value Source: NWS Daily Summary

Daily Weather History Graph

Daily Weather History Graph

Search for Another Location

Airport:

Trip Planner

Search our weather history database for the weather conditions in past years. The results will help you decide how hot, cold, wet, or windy it might be!

Date:

Astronomy

Oct. 08, 2012 Rise Set
Actual Time 7:29 AM EDT 6:59 PM EDT
Civil Twilight 7:03 AM EDT 7:25 PM EDT
Nautical Twilight 6:32 AM EDT 7:55 PM EDT
Astronomical Twilight 6:02 AM EDT 8:25 PM EDT
Moon 12:16 AM EDT (10/8) 2:39 PM EDT (10/8)
Length of Visible Light 12h 22m
Length of Day
11h 30m
Waning Gibbous, 46% of the Moon is Illuminated
Oct 8
Waning Gibbous
Oct 15
New
Oct 21
First Quarter
Oct 29
Full
Nov 6
Last Quarter

Hourly Weather History & Observations

Time (EDT) Temp. Windchill Dew Point Humidity Pressure Visibility Wind Dir Wind Speed Gust Speed Precip Events Conditions
12:55 AM 35.6 °F - 35.6 °F 100% 30.15 in 0.2 mi Calm Calm - N/A   Overcast
1:15 AM 35.6 °F - 35.6 °F 100% 30.15 in 0.2 mi Calm Calm - N/A   Overcast
1:35 AM 37.4 °F - 37.4 °F 100% 30.12 in 8.0 mi Calm Calm - N/A   Partly Cloudy
1:55 AM 37.4 °F - 37.4 °F 100% 30.13 in 5.0 mi Calm Calm - N/A   Scattered Clouds
2:15 AM 37.4 °F 33.8 °F 37.4 °F 100% 30.13 in 10.0 mi Variable 4.6 mph - N/A   Partly Cloudy
2:35 AM 37.4 °F - 37.4 °F 100% 30.14 in 10.0 mi Calm Calm - N/A   Clear
2:55 AM 37.4 °F 34.9 °F 37.4 °F 100% 30.15 in 2.5 mi North 3.5 mph - N/A   Partly Cloudy
3:15 AM 35.6 °F 32.8 °F 35.6 °F 100% 30.16 in 0.2 mi NNE 3.5 mph - N/A   Overcast
3:35 AM 37.4 °F 34.9 °F 37.4 °F 100% 30.15 in 10.0 mi NNE 3.5 mph - N/A   Mostly Cloudy
3:55 AM 37.4 °F 34.9 °F 37.4 °F 100% 30.15 in 7.0 mi ENE 3.5 mph - N/A   Partly Cloudy
4:15 AM 37.4 °F 34.9 °F 37.4 °F 100% 30.14 in 9.0 mi Variable 3.5 mph - N/A   Partly Cloudy
4:35 AM 37.4 °F - 37.4 °F 100% 30.15 in 10.0 mi Calm Calm - N/A   Mostly Cloudy
4:55 AM 37.4 °F - 37.4 °F 100% 30.16 in 10.0 mi Calm Calm - N/A   Mostly Cloudy
5:15 AM 37.4 °F - 37.4 °F 100% 30.16 in 0.2 mi Calm Calm - N/A   Overcast
5:35 AM 37.4 °F 33.8 °F 37.4 °F 100% 30.15 in 1.2 mi East 4.6 mph - N/A   Mostly Cloudy
5:55 AM 37.4 °F 33.8 °F 37.4 °F 100% 30.14 in 10.0 mi NE 4.6 mph - N/A   Clear
6:15 AM 37.4 °F 32.8 °F 37.4 °F 100% 30.15 in 9.0 mi Variable 5.8 mph - N/A   Clear
6:35 AM 37.4 °F 32.8 °F 37.4 °F 100% 30.15 in 6.0 mi ENE 5.8 mph - N/A   Partly Cloudy
6:55 AM 39.2 °F 35.9 °F 39.2 °F 100% 30.17 in 10.0 mi NNW 4.6 mph - N/A   Clear
7:15 AM 37.4 °F 33.8 °F 37.4 °F 100% 30.16 in 6.0 mi Variable 4.6 mph - N/A   Unknown
7:35 AM 37.4 °F 34.9 °F 37.4 °F 100% 30.16 in 10.0 mi Variable 3.5 mph - N/A   Unknown
7:55 AM 37.4 °F - 37.4 °F 100% 30.17 in 8.0 mi Calm Calm - N/A   Partly Cloudy
8:15 AM 37.4 °F 32.8 °F 37.4 °F 100% 30.16 in 8.0 mi Variable 5.8 mph - N/A   Mostly Cloudy
8:35 AM 37.4 °F 33.8 °F 37.4 °F 100% 30.16 in 6.0 mi Variable 4.6 mph - N/A   Scattered Clouds
8:55 AM 37.4 °F 33.8 °F 37.4 °F 100% 30.16 in 10.0 mi ENE 4.6 mph - N/A   Mostly Cloudy
9:15 AM 39.2 °F 35.9 °F 39.2 °F 100% 30.16 in 10.0 mi NE 4.6 mph - N/A   Overcast
9:35 AM 39.2 °F 35.0 °F 39.2 °F 100% 30.16 in 10.0 mi NE 5.8 mph - N/A   Overcast
9:55 AM 39.2 °F - 39.2 °F 100% 30.16 in 10.0 mi Calm Calm - N/A   Overcast
10:15 AM 39.2 °F - 39.2 °F 100% 30.17 in 9.0 mi Calm Calm - N/A   Overcast
10:35 AM 41.0 °F 39.0 °F 41.0 °F 100% 30.17 in 10.0 mi East 3.5 mph - N/A   Overcast
10:55 AM 42.8 °F 40.1 °F 41.0 °F 93% 30.17 in 10.0 mi East 4.6 mph - N/A   Mostly Cloudy
11:15 AM 42.8 °F - 39.2 °F 87% 30.18 in 10.0 mi Calm Calm - N/A   Mostly Cloudy
11:35 AM 42.8 °F - 42.8 °F 100% 30.19 in 10.0 mi Calm Calm - N/A   Overcast
11:55 AM 42.8 °F - 42.8 °F 100% 30.20 in 10.0 mi Calm Calm - N/A   Overcast
12:15 PM 41.0 °F - 41.0 °F 100% 30.19 in 8.0 mi Calm Calm - N/A   Mostly Cloudy
12:35 PM 41.0 °F - 41.0 °F 100% 30.19 in 3.0 mi Calm Calm - N/A   Mostly Cloudy
12:55 PM 42.8 °F 41.1 °F 42.8 °F 100% 30.17 in 7.0 mi NNW 3.5 mph - N/A   Partly Cloudy
1:15 PM 42.8 °F - 42.8 °F 100% 30.19 in 9.0 mi Calm Calm - N/A   Unknown
1:35 PM 42.8 °F - 42.8 °F 100% 30.18 in 4.0 mi Calm Calm - N/A   Scattered Clouds
1:55 PM 42.8 °F - 42.8 °F 100% 30.17 in 4.0 mi Calm Calm - N/A   Partly Cloudy
2:35 PM 42.8 °F 41.1 °F 42.8 °F 100% 30.15 in 7.0 mi East 3.5 mph - N/A   Unknown
2:55 PM 42.8 °F - 42.8 °F 100% 30.15 in 4.0 mi Calm Calm - N/A   Partly Cloudy
3:15 PM 42.8 °F 41.1 °F 42.8 °F 100% 30.15 in 2.0 mi Variable 3.5 mph - N/A   Partly Cloudy
3:35 PM 42.8 °F - 42.8 °F 100% 30.14 in 7.0 mi Calm Calm - N/A   Partly Cloudy
3:55 PM 42.8 °F - 42.8 °F 100% 30.14 in 8.0 mi Calm Calm - N/A   Partly Cloudy
4:15 PM 42.8 °F - 42.8 °F 100% 30.13 in 10.0 mi Calm Calm - N/A   Unknown
4:35 PM 42.8 °F - 42.8 °F 100% 30.12 in 10.0 mi Calm Calm - N/A   Unknown
4:55 PM 42.8 °F - 42.8 °F 100% 30.13 in 10.0 mi Calm Calm - N/A   Partly Cloudy
5:15 PM 42.8 °F - 42.8 °F 100% 30.13 in 10.0 mi Calm Calm - N/A   Partly Cloudy
5:35 PM 42.8 °F - 42.8 °F 100% 30.12 in 10.0 mi Calm Calm - N/A   Partly Cloudy
5:55 PM 42.8 °F - 42.8 °F 100% 30.12 in 10.0 mi Calm Calm - N/A   Scattered Clouds
6:15 PM 44.6 °F - 44.6 °F 100% 30.13 in 10.0 mi Calm Calm - N/A   Partly Cloudy
6:35 PM 42.8 °F - 42.8 °F 100% 30.13 in 10.0 mi Calm Calm - N/A   Partly Cloudy
6:55 PM 42.8 °F - 42.8 °F 100% 30.13 in 10.0 mi Calm Calm - N/A   Scattered Clouds
7:15 PM 42.8 °F - 42.8 °F 100% 30.13 in 10.0 mi Calm Calm - N/A   Scattered Clouds
7:55 PM 42.8 °F - 42.8 °F 100% 30.13 in 7.0 mi Calm Calm - N/A   Partly Cloudy
8:15 PM 42.8 °F - 42.8 °F 100% 30.14 in 8.0 mi Calm Calm - N/A   Mostly Cloudy
8:35 PM 42.8 °F - 42.8 °F 100% 30.13 in 2.0 mi Calm Calm - N/A   Overcast
8:55 PM 42.8 °F - 42.8 °F 100% 30.13 in 9.0 mi Calm Calm - N/A   Mostly Cloudy
9:15 PM 42.8 °F - 42.8 °F 100% 30.13 in 10.0 mi Calm Calm - N/A   Overcast
9:35 PM 42.8 °F - 42.8 °F 100% 30.14 in 10.0 mi Calm Calm - N/A   Overcast
9:55 PM 42.8 °F - 42.8 °F 100% 30.14 in 8.0 mi Calm Calm - N/A   Mostly Cloudy
10:15 PM 42.8 °F - 42.8 °F 100% 30.15 in 4.0 mi Calm Calm - N/A   Mostly Cloudy
10:35 PM 42.8 °F - 42.8 °F 100% 30.15 in 5.0 mi Calm Calm - N/A   Scattered Clouds
10:55 PM 42.8 °F - 42.8 °F 100% 30.15 in 2.5 mi Calm Calm - N/A   Partly Cloudy
11:15 PM 42.8 °F - 42.8 °F 100% 30.15 in 10.0 mi Calm Calm - N/A   Scattered Clouds
11:55 PM 42.8 °F - 42.8 °F 100% 30.15 in 7.0 mi Calm Calm - N/A   Mostly Cloudy